Time,TemperatureF,DewpointF,PressureIn,WindDirection,WindDirectionDegrees,WindSpeedMPH,WindSpeedGustMPH,Humidity,HourlyPrecipIn,Conditions,Clouds,dailyrainin,SoftwareType,DateUTC
2013-01-07 00:00:00,38.3,24.4,29.56,WSW,248,3.1,3.1,57,0.00,,,0.00,VWS V14.01,2013-01-07 05:00:00,
2013-01-07 00:01:00,38.3,24.4,29.56,WSW,248,5.6,5.6,57,0.00,,,0.00,VWS V14.01,2013-01-07 05:01:00,
2013-01-07 00:06:00,38.1,24.2,29.56,West,270,2.9,2.9,57,0.00,,,0.00,VWS V14.01,2013-01-07 05:06:00,
2013-01-07 00:11:00,38.1,24.2,29.59,West,270,3.1,3.1,57,0.00,,,0.00,VWS V14.01,2013-01-07 05:11:00,
2013-01-07 00:16:00,38.3,24.4,29.59,WNW,292,5.6,5.6,57,0.00,,,0.00,VWS V14.01,2013-01-07 05:16:00,
2013-01-07 00:21:00,38.5,24.6,29.59,WSW,248,2.5,2.5,57,0.00,,,0.00,VWS V14.01,2013-01-07 05:21:00,
2013-01-07 00:26:00,38.5,24.6,29.59,WSW,248,2.0,2.0,57,0.00,,,0.00,VWS V14.01,2013-01-07 05:26:00,
2013-01-07 00:31:00,38.5,24.6,29.59,WSW,248,4.0,4.0,57,0.00,,,0.00,VWS V14.01,2013-01-07 05:31:00,
2013-01-07 00:36:00,38.5,24.6,29.59,West,270,3.8,3.8,57,0.00,,,0.00,VWS V14.01,2013-01-07 05:36:00,
2013-01-07 00:41:00,38.7,24.8,29.59,WSW,248,4.9,4.9,57,0.00,,,0.00,VWS V14.01,2013-01-07 05:41:00,
2013-01-07 00:47:00,38.7,24.8,29.59,WSW,248,3.1,3.1,57,0.00,,,0.00,VWS V14.01,2013-01-07 05:47:00,
2013-01-07 00:52:00,38.7,24.8,29.59,WSW,248,3.4,3.4,57,0.00,,,0.00,VWS V14.01,2013-01-07 05:52:00,
2013-01-07 00:57:00,38.7,25.2,29.59,WSW,248,3.6,3.6,58,0.00,,,0.00,VWS V14.01,2013-01-07 05:57:00,
2013-01-07 01:02:00,38.5,25.0,29.59,WSW,248,2.0,2.0,58,0.00,,,0.00,VWS V14.01,2013-01-07 06:02:00,
2013-01-07 01:07:00,38.3,25.2,29.59,WSW,248,4.3,4.3,59,0.00,,,0.00,VWS V14.01,2013-01-07 06:07:00,
2013-01-07 01:12:00,38.5,25.4,29.59,WNW,292,5.4,5.4,59,0.00,,,0.00,VWS V14.01,2013-01-07 06:12:00,
2013-01-07 01:17:00,38.5,25.4,29.59,WSW,248,5.4,5.4,59,0.00,,,0.00,VWS V14.01,2013-01-07 06:17:00,
2013-01-07 01:22:00,38.5,25.4,29.59,WSW,248,2.7,2.7,59,0.00,,,0.00,VWS V14.01,2013-01-07 06:22:00,
2013-01-07 01:27:00,38.5,25.4,29.59,West,270,3.8,3.8,59,0.00,,,0.00,VWS V14.01,2013-01-07 06:27:00,
2013-01-07 01:32:00,38.5,25.4,29.59,WNW,292,2.9,2.9,59,0.00,,,0.00,VWS V14.01,2013-01-07 06:32:00,
2013-01-07 01:37:00,38.5,25.4,29.59,West,270,2.9,2.9,59,0.00,,,0.00,VWS V14.01,2013-01-07 06:37:00,
2013-01-07 01:42:00,38.3,25.2,29.59,West,270,3.8,3.8,59,0.00,,,0.00,VWS V14.01,2013-01-07 06:42:00,
2013-01-07 01:47:00,38.3,25.2,29.59,West,270,5.8,5.8,59,0.00,,,0.00,VWS V14.01,2013-01-07 06:47:00,
2013-01-07 01:52:00,38.3,25.2,29.59,WSW,248,4.9,4.9,59,0.00,,,0.00,VWS V14.01,2013-01-07 06:52:00,
2013-01-07 01:58:00,38.5,25.4,29.62,West,270,4.0,4.0,59,0.00,,,0.00,VWS V14.01,2013-01-07 06:58:00,
2013-01-07 02:03:00,38.5,25.4,29.62,West,270,5.4,5.4,59,0.00,,,0.00,VWS V14.01,2013-01-07 07:03:00,
2013-01-07 02:08:00,38.7,25.6,29.62,West,270,4.9,4.9,59,0.00,,,0.00,VWS V14.01,2013-01-07 07:08:00,
2013-01-07 02:13:00,38.7,25.6,29.62,WSW,248,4.0,4.0,59,0.00,,,0.00,VWS V14.01,2013-01-07 07:13:00,
2013-01-07 02:18:00,38.7,25.6,29.62,West,270,4.0,4.0,59,0.00,,,0.00,VWS V14.01,2013-01-07 07:18:00,
2013-01-07 02:23:00,38.8,25.8,29.62,West,270,5.6,5.6,59,0.00,,,0.00,VWS V14.01,2013-01-07 07:23:00,
2013-01-07 02:28:00,38.8,25.8,29.62,WNW,292,6.5,6.5,59,0.00,,,0.00,VWS V14.01,2013-01-07 07:28:00,
2013-01-07 02:33:00,38.8,25.3,29.62,WNW,292,5.8,5.8,58,0.00,,,0.00,VWS V14.01,2013-01-07 07:33:00,
2013-01-07 02:38:00,38.8,25.3,29.62,West,270,5.6,5.6,58,0.00,,,0.00,VWS V14.01,2013-01-07 07:38:00,
2013-01-07 02:43:00,38.8,25.3,29.62,West,270,3.6,3.6,58,0.00,,,0.00,VWS V14.01,2013-01-07 07:43:00,
2013-01-07 02:48:00,39.0,25.5,29.62,WSW,248,5.6,5.6,58,0.00,,,0.00,VWS V14.01,2013-01-07 07:48:00,
2013-01-07 02:53:00,39.0,25.5,29.62,WNW,292,5.4,5.4,58,0.00,,,0.00,VWS V14.01,2013-01-07 07:53:00,
2013-01-07 02:58:00,39.0,25.5,29.62,West,270,7.2,7.2,58,0.00,,,0.00,VWS V14.01,2013-01-07 07:58:00,
2013-01-07 03:03:00,39.0,25.5,29.62,WNW,292,5.4,5.4,58,0.00,,,0.00,VWS V14.01,2013-01-07 08:03:00,
2013-01-07 03:08:00,39.0,25.5,29.62,WNW,292,4.5,4.5,58,0.00,,,0.00,VWS V14.01,2013-01-07 08:08:00,
2013-01-07 03:13:00,39.0,25.5,29.62,West,270,5.4,5.4,58,0.00,,,0.00,VWS V14.01,2013-01-07 08:13:00,
2013-01-07 03:18:00,39.0,25.5,29.62,WNW,292,3.6,3.6,58,0.00,,,0.00,VWS V14.01,2013-01-07 08:18:00,
2013-01-07 03:23:00,39.0,25.5,29.62,WNW,292,5.4,5.4,58,0.00,,,0.00,VWS V14.01,2013-01-07 08:23:00,
2013-01-07 03:28:00,39.0,25.5,29.62,West,270,2.9,2.9,58,0.00,,,0.00,VWS V14.01,2013-01-07 08:28:00,
2013-01-07 03:33:00,39.0,25.5,29.62,West,270,4.3,4.3,58,0.00,,,0.00,VWS V14.01,2013-01-07 08:33:00,
2013-01-07 03:38:00,38.8,25.3,29.62,WNW,292,7.2,7.2,58,0.00,,,0.00,VWS V14.01,2013-01-07 08:38:00,
2013-01-07 03:43:00,38.8,25.3,29.62,West,270,6.0,6.0,58,0.00,,,0.00,VWS V14.01,2013-01-07 08:43:00,
2013-01-07 03:48:00,38.8,25.3,29.62,WSW,248,5.4,5.4,58,0.00,,,0.00,VWS V14.01,2013-01-07 08:48:00,
2013-01-07 03:53:00,38.8,25.3,29.62,WNW,292,6.7,6.7,58,0.00,,,0.00,VWS V14.01,2013-01-07 08:53:00,
2013-01-07 03:58:00,38.8,25.3,29.62,West,270,10.5,10.5,58,0.00,,,0.00,VWS V14.01,2013-01-07 08:58:00,
2013-01-07 04:03:00,39.0,25.1,29.62,West,270,4.9,4.9,57,0.00,,,0.00,VWS V14.01,2013-01-07 09:03:00,
2013-01-07 04:08:00,38.8,24.9,29.65,WNW,292,4.3,4.3,57,0.00,,,0.00,VWS V14.01,2013-01-07 09:08:00,
2013-01-07 04:14:00,39.0,25.1,29.65,WNW,292,4.9,4.9,57,0.00,,,0.00,VWS V14.01,2013-01-07 09:14:00,
2013-01-07 04:19:00,38.8,24.9,29.65,West,270,5.4,5.4,57,0.00,,,0.00,VWS V14.01,2013-01-07 09:19:00,
2013-01-07 04:24:00,38.8,25.3,29.65,WNW,292,9.6,9.6,58,0.00,,,0.00,VWS V14.01,2013-01-07 09:24:00,
2013-01-07 04:29:00,38.8,25.3,29.65,West,270,4.3,4.3,58,0.00,,,0.00,VWS V14.01,2013-01-07 09:29:00,
2013-01-07 04:34:00,38.8,25.3,29.65,WNW,292,6.3,6.3,58,0.00,,,0.00,VWS V14.01,2013-01-07 09:34:00,
2013-01-07 04:39:00,38.8,25.3,29.68,WSW,248,5.6,5.6,58,0.00,,,0.00,VWS V14.01,2013-01-07 09:39:00,
2013-01-07 04:44:00,38.8,25.3,29.68,West,270,4.5,4.5,58,0.00,,,0.00,VWS V14.01,2013-01-07 09:44:00,
2013-01-07 04:49:00,38.8,25.3,29.68,West,270,6.3,6.3,58,0.00,,,0.00,VWS V14.01,2013-01-07 09:49:00,
2013-01-07 04:54:00,38.8,25.3,29.68,West,270,5.8,5.8,58,0.00,,,0.00,VWS V14.01,2013-01-07 09:54:00,
2013-01-07 04:59:00,38.8,25.3,29.68,West,270,7.8,7.8,58,0.00,,,0.00,VWS V14.01,2013-01-07 09:59:00,
2013-01-07 05:04:00,38.8,25.3,29.68,West,270,7.2,7.2,58,0.00,,,0.00,VWS V14.01,2013-01-07 10:04:00,
2013-01-07 05:09:00,38.7,25.2,29.68,West,270,6.0,6.0,58,0.00,,,0.00,VWS V14.01,2013-01-07 10:09:00,
2013-01-07 05:14:00,38.7,25.6,29.68,WNW,292,9.6,9.6,59,0.00,,,0.00,VWS V14.01,2013-01-07 10:14:00,
2013-01-07 05:19:00,38.7,25.6,29.68,NW,315,4.5,4.5,59,0.00,,,0.00,VWS V14.01,2013-01-07 10:19:00,
2013-01-07 05:24:00,38.7,25.6,29.68,WNW,292,5.6,5.6,59,0.00,,,0.00,VWS V14.01,2013-01-07 10:24:00,
2013-01-07 05:29:00,38.5,25.4,29.68,West,270,8.1,8.1,59,0.00,,,0.00,VWS V14.01,2013-01-07 10:29:00,
2013-01-07 05:34:00,38.5,25.8,29.68,West,270,5.6,5.6,60,0.00,,,0.00,VWS V14.01,2013-01-07 10:34:00,
2013-01-07 05:39:00,38.5,25.8,29.68,WSW,248,4.7,4.7,60,0.00,,,0.00,VWS V14.01,2013-01-07 10:39:00,
2013-01-07 05:44:00,38.5,25.8,29.68,West,270,5.4,5.4,60,0.00,,,0.00,VWS V14.01,2013-01-07 10:44:00,
2013-01-07 05:49:00,38.5,25.8,29.68,WNW,292,6.0,6.0,60,0.00,,,0.00,VWS V14.01,2013-01-07 10:49:00,
2013-01-07 05:54:00,38.5,25.8,29.68,WNW,292,6.5,6.5,60,0.00,,,0.00,VWS V14.01,2013-01-07 10:54:00,
2013-01-07 06:00:00,38.5,26.2,29.68,West,270,3.8,3.8,61,0.00,,,0.00,VWS V14.01,2013-01-07 11:00:00,
2013-01-07 06:05:00,38.3,26.0,29.68,WNW,292,4.0,4.0,61,0.00,,,0.00,VWS V14.01,2013-01-07 11:05:00,
2013-01-07 06:10:00,38.3,26.0,29.71,WNW,292,4.9,4.9,61,0.00,,,0.00,VWS V14.01,2013-01-07 11:10:00,
2013-01-07 06:15:00,38.3,26.0,29.71,West,270,8.1,8.1,61,0.00,,,0.00,VWS V14.01,2013-01-07 11:15:00,
2013-01-07 06:20:00,38.3,26.0,29.71,West,270,6.5,6.5,61,0.00,,,0.00,VWS V14.01,2013-01-07 11:20:00,
2013-01-07 06:25:00,38.5,26.2,29.71,WNW,292,4.9,4.9,61,0.00,,,0.00,VWS V14.01,2013-01-07 11:25:00,
2013-01-07 06:30:00,38.5,26.2,29.71,NW,315,4.9,4.9,61,0.00,,,0.00,VWS V14.01,2013-01-07 11:30:00,
2013-01-07 06:35:00,38.5,26.2,29.71,WNW,292,3.8,3.8,61,0.00,,,0.00,VWS V14.01,2013-01-07 11:35:00,
2013-01-07 06:40:00,38.5,26.2,29.71,WNW,292,4.9,4.9,61,0.00,,,0.00,VWS V14.01,2013-01-07 11:40:00,
2013-01-07 06:45:00,38.5,26.2,29.71,WNW,292,8.1,8.1,61,0.00,,,0.00,VWS V14.01,2013-01-07 11:45:00,
2013-01-07 06:50:00,38.5,26.2,29.71,WNW,292,4.0,4.0,61,0.00,,,0.00,VWS V14.01,2013-01-07 11:50:00,
2013-01-07 06:55:00,38.5,26.2,29.74,WNW,292,5.6,5.6,61,0.00,,,0.00,VWS V14.01,2013-01-07 11:55:00,
2013-01-07 07:00:00,38.5,26.2,29.74,WSW,248,3.8,3.8,61,0.00,,,0.00,VWS V14.01,2013-01-07 12:00:00,
2013-01-07 07:05:00,38.5,26.2,29.74,WNW,292,5.4,5.4,61,0.00,,,0.00,VWS V14.01,2013-01-07 12:05:00,
2013-01-07 07:10:00,38.5,26.2,29.74,NNW,338,3.6,3.6,61,0.00,,,0.00,VWS V14.01,2013-01-07 12:10:00,
2013-01-07 07:15:00,38.5,26.2,29.74,WNW,292,4.0,4.0,61,0.00,,,0.00,VWS V14.01,2013-01-07 12:15:00,
2013-01-07 07:20:00,38.5,26.2,29.74,West,270,4.9,4.9,61,0.00,,,0.00,VWS V14.01,2013-01-07 12:20:00,
2013-01-07 07:25:00,38.5,26.2,29.74,West,270,5.4,5.4,61,0.00,,,0.00,VWS V14.01,2013-01-07 12:25:00,
2013-01-07 07:30:00,38.5,26.2,29.74,WSW,248,5.4,5.4,61,0.00,,,0.00,VWS V14.01,2013-01-07 12:30:00,
2013-01-07 07:35:00,38.3,26.0,29.74,West,270,5.4,5.4,61,0.00,,,0.00,VWS V14.01,2013-01-07 12:35:00,
2013-01-07 07:41:00,38.3,26.0,29.71,West,270,3.1,3.1,61,0.00,,,0.00,VWS V14.01,2013-01-07 12:41:00,
2013-01-07 07:46:00,38.3,26.0,29.71,WSW,248,4.0,4.0,61,0.00,,,0.00,VWS V14.01,2013-01-07 12:46:00,
2013-01-07 07:51:00,38.1,26.3,29.71,WSW,248,4.3,4.3,62,0.00,,,0.00,VWS V14.01,2013-01-07 12:51:00,
2013-01-07 07:56:00,38.1,26.3,29.74,WNW,292,4.3,4.3,62,0.00,,,0.00,VWS V14.01,2013-01-07 12:56:00,
2013-01-07 08:01:00,38.1,26.3,29.74,West,270,6.5,6.5,62,0.00,,,0.00,VWS V14.01,2013-01-07 13:01:00,
2013-01-07 08:06:00,38.1,26.3,29.74,West,270,4.5,4.5,62,0.00,,,0.00,VWS V14.01,2013-01-07 13:06:00,
2013-01-07 08:11:00,37.9,26.1,29.74,WSW,248,6.0,6.0,62,0.00,,,0.00,VWS V14.01,2013-01-07 13:11:00,
2013-01-07 08:16:00,38.1,26.3,29.74,West,270,6.5,6.5,62,0.00,,,0.00,VWS V14.01,2013-01-07 13:16:00,
2013-01-07 08:21:00,38.1,26.3,29.74,West,270,4.3,4.3,62,0.00,,,0.00,VWS V14.01,2013-01-07 13:21:00,
2013-01-07 08:26:00,38.3,26.4,29.76,WNW,292,4.9,4.9,62,0.00,,,0.00,VWS V14.01,2013-01-07 13:26:00,
2013-01-07 08:32:00,38.5,26.6,29.76,WNW,292,5.4,5.4,62,0.00,,,0.00,VWS V14.01,2013-01-07 13:32:00,
2013-01-07 08:36:00,38.5,26.2,29.76,NW,315,4.3,4.3,61,0.00,,,0.00,VWS V14.01,2013-01-07 13:36:00,
2013-01-07 08:42:00,38.5,26.2,29.79,WNW,292,6.0,6.0,61,0.00,,,0.00,VWS V14.01,2013-01-07 13:42:00,
2013-01-07 08:47:00,38.7,26.4,29.79,WNW,292,6.3,6.3,61,0.00,,,0.00,VWS V14.01,2013-01-07 13:47:00,
2013-01-07 08:52:00,38.7,26.4,29.79,West,270,7.6,7.6,61,0.00,,,0.00,VWS V14.01,2013-01-07 13:52:00,
2013-01-07 08:57:00,38.7,26.4,29.79,West,270,8.1,8.1,61,0.00,,,0.00,VWS V14.01,2013-01-07 13:57:00,
2013-01-07 09:02:00,38.7,26.4,29.79,West,270,6.3,6.3,61,0.00,,,0.00,VWS V14.01,2013-01-07 14:02:00,
2013-01-07 09:07:00,38.7,26.4,29.79,WNW,292,6.3,6.3,61,0.00,,,0.00,VWS V14.01,2013-01-07 14:07:00,
2013-01-07 09:12:00,38.7,26.0,29.79,WNW,292,5.8,5.8,60,0.00,,,0.00,VWS V14.01,2013-01-07 14:12:00,
2013-01-07 09:17:00,38.8,26.2,29.79,West,270,6.0,6.0,60,0.00,,,0.00,VWS V14.01,2013-01-07 14:17:00,
2013-01-07 09:22:00,38.8,26.2,29.79,WNW,292,4.5,4.5,60,0.00,,,0.00,VWS V14.01,2013-01-07 14:22:00,
2013-01-07 09:27:00,39.0,26.3,29.79,West,270,3.6,3.6,60,0.00,,,0.00,VWS V14.01,2013-01-07 14:27:00,
2013-01-07 09:32:00,39.0,26.3,29.79,West,270,2.5,2.5,60,0.00,,,0.00,VWS V14.01,2013-01-07 14:32:00,
2013-01-07 09:37:00,39.0,26.3,29.79,NW,315,5.8,5.8,60,0.00,,,0.00,VWS V14.01,2013-01-07 14:37:00,
2013-01-07 09:42:00,39.2,26.1,29.79,West,270,3.1,3.1,59,0.00,,,0.00,VWS V14.01,2013-01-07 14:42:00,
2013-01-07 09:47:00,39.2,26.1,29.79,NW,315,2.0,2.0,59,0.00,,,0.00,VWS V14.01,2013-01-07 14:47:00,
2013-01-07 09:52:00,39.4,26.3,29.79,West,270,3.4,3.4,59,0.00,,,0.00,VWS V14.01,2013-01-07 14:52:00,
2013-01-07 09:58:00,39.4,26.3,29.82,West,270,3.8,3.8,59,0.00,,,0.00,VWS V14.01,2013-01-07 14:58:00,
2013-01-07 10:03:00,39.6,26.4,29.82,West,270,3.6,3.6,59,0.00,,,0.00,VWS V14.01,2013-01-07 15:03:00,
2013-01-07 10:08:00,39.6,26.4,29.82,WSW,248,2.7,2.7,59,0.00,,,0.00,VWS V14.01,2013-01-07 15:08:00,
2013-01-07 10:13:00,39.7,26.6,29.82,WSW,248,3.1,3.1,59,0.00,,,0.00,VWS V14.01,2013-01-07 15:13:00,
2013-01-07 10:18:00,39.7,26.2,29.82,WNW,292,5.6,5.6,58,0.00,,,0.00,VWS V14.01,2013-01-07 15:18:00,
2013-01-07 10:23:00,39.7,26.2,29.82,WSW,248,4.9,4.9,58,0.00,,,0.00,VWS V14.01,2013-01-07 15:23:00,
2013-01-07 10:28:00,39.7,26.2,29.82,West,270,5.6,5.6,58,0.00,,,0.00,VWS V14.01,2013-01-07 15:28:00,
2013-01-07 10:33:00,39.9,26.4,29.82,West,270,6.7,6.7,58,0.00,,,0.00,VWS V14.01,2013-01-07 15:33:00,
2013-01-07 10:38:00,40.1,26.5,29.82,WNW,292,1.3,1.3,58,0.00,,,0.00,VWS V14.01,2013-01-07 15:38:00,
2013-01-07 10:43:00,40.3,26.7,29.82,NW,315,2.5,2.5,58,0.00,,,0.00,VWS V14.01,2013-01-07 15:43:00,
2013-01-07 10:48:00,40.3,25.9,29.82,West,270,3.1,3.1,56,0.00,,,0.00,VWS V14.01,2013-01-07 15:48:00,
2013-01-07 10:53:00,40.5,26.0,29.82,WNW,292,3.8,3.8,56,0.00,,,0.00,VWS V14.01,2013-01-07 15:53:00,
2013-01-07 10:58:00,40.5,26.0,29.82,West,270,3.1,3.1,56,0.00,,,0.00,VWS V14.01,2013-01-07 15:58:00,
2013-01-07 11:03:00,40.6,26.2,29.82,WNW,292,4.3,4.3,56,0.00,,,0.00,VWS V14.01,2013-01-07 16:03:00,
2013-01-07 11:09:00,40.8,25.9,29.85,WSW,248,4.3,4.3,55,0.00,,,0.00,VWS V14.01,2013-01-07 16:09:00,
2013-01-07 11:14:00,40.8,25.9,29.85,NW,315,5.4,5.4,55,0.00,,,0.00,VWS V14.01,2013-01-07 16:14:00,
2013-01-07 11:19:00,40.6,25.8,29.85,West,270,6.5,6.5,55,0.00,,,0.00,VWS V14.01,2013-01-07 16:19:00,
2013-01-07 11:24:00,40.6,25.8,29.82,WSW,248,6.3,6.3,55,0.00,,,0.00,VWS V14.01,2013-01-07 16:24:00,
2013-01-07 11:29:00,40.5,25.6,29.82,WSW,248,5.4,5.4,55,0.00,,,0.00,VWS V14.01,2013-01-07 16:29:00,
2013-01-07 11:34:00,40.6,25.8,29.82,West,270,4.3,4.3,55,0.00,,,0.00,VWS V14.01,2013-01-07 16:34:00,
2013-01-07 11:39:00,40.5,25.6,29.82,WSW,248,6.3,6.3,55,0.00,,,0.00,VWS V14.01,2013-01-07 16:39:00,
2013-01-07 11:44:00,40.5,25.6,29.82,WSW,248,4.9,4.9,55,0.00,,,0.00,VWS V14.01,2013-01-07 16:44:00,
2013-01-07 11:49:00,40.6,25.8,29.82,West,270,4.9,4.9,55,0.00,,,0.00,VWS V14.01,2013-01-07 16:49:00,
2013-01-07 11:54:00,40.6,25.8,29.82,WSW,248,5.4,5.4,55,0.00,,,0.00,VWS V14.01,2013-01-07 16:54:00,
2013-01-07 12:00:00,40.8,25.9,29.82,West,270,4.0,4.0,55,0.00,,,0.00,VWS V14.01,2013-01-07 17:00:00,
2013-01-07 12:05:00,41.0,25.6,29.82,WSW,248,4.3,4.3,54,0.00,,,0.00,VWS V14.01,2013-01-07 17:05:00,
2013-01-07 12:10:00,41.2,25.8,29.82,West,270,3.8,3.8,54,0.00,,,0.00,VWS V14.01,2013-01-07 17:10:00,
2013-01-07 12:15:00,41.2,25.4,29.82,West,270,1.3,1.3,53,0.00,,,0.00,VWS V14.01,2013-01-07 17:15:00,
2013-01-07 12:20:00,41.5,25.7,29.82,WNW,292,4.0,4.0,53,0.00,,,0.00,VWS V14.01,2013-01-07 17:20:00,
2013-01-07 12:25:00,41.4,24.6,29.82,WNW,292,7.2,7.2,51,0.00,,,0.00,VWS V14.01,2013-01-07 17:25:00,
2013-01-07 12:30:00,41.2,24.0,29.82,West,270,7.8,7.8,50,0.00,,,0.00,VWS V14.01,2013-01-07 17:30:00,
2013-01-07 12:35:00,41.2,24.4,29.82,WSW,248,5.4,5.4,51,0.00,,,0.00,VWS V14.01,2013-01-07 17:35:00,
2013-01-07 12:40:00,41.2,24.9,29.82,WSW,248,4.3,4.3,52,0.00,,,0.00,VWS V14.01,2013-01-07 17:40:00,
2013-01-07 12:45:00,41.2,24.9,29.82,WNW,292,2.5,2.5,52,0.00,,,0.00,VWS V14.01,2013-01-07 17:45:00,
2013-01-07 12:50:00,41.0,24.3,29.82,West,270,2.2,2.2,51,0.00,,,0.00,VWS V14.01,2013-01-07 17:50:00,
2013-01-07 12:56:00,41.2,24.9,29.82,West,270,2.7,2.7,52,0.00,,,0.00,VWS V14.01,2013-01-07 17:56:00,
2013-01-07 13:01:00,41.4,25.1,29.82,SW,225,0.0,0.0,52,0.00,,,0.00,VWS V14.01,2013-01-07 18:01:00,
2013-01-07 13:06:00,41.4,24.1,29.82,WSW,248,3.4,3.4,50,0.00,,,0.00,VWS V14.01,2013-01-07 18:06:00,
2013-01-07 13:11:00,41.4,24.6,29.82,West,270,4.3,4.3,51,0.00,,,0.00,VWS V14.01,2013-01-07 18:11:00,
2013-01-07 13:16:00,41.4,24.1,29.82,NW,315,9.8,9.8,50,0.00,,,0.00,VWS V14.01,2013-01-07 18:16:00,
2013-01-07 13:21:00,41.0,23.8,29.82,West,270,7.6,7.6,50,0.00,,,0.00,VWS V14.01,2013-01-07 18:21:00,
2013-01-07 13:26:00,41.0,23.8,29.82,WSW,248,9.6,9.6,50,0.00,,,0.00,VWS V14.01,2013-01-07 18:26:00,
2013-01-07 13:31:00,41.2,24.0,29.82,WSW,248,4.9,4.9,50,0.00,,,0.00,VWS V14.01,2013-01-07 18:31:00,
2013-01-07 13:37:00,41.0,23.3,29.82,West,270,6.0,6.0,49,0.00,,,0.00,VWS V14.01,2013-01-07 18:37:00,
2013-01-07 13:42:00,41.2,23.5,29.82,WSW,248,5.4,5.4,49,0.00,,,0.00,VWS V14.01,2013-01-07 18:42:00,
2013-01-07 13:47:00,41.2,24.0,29.82,WNW,292,4.0,4.0,50,0.00,,,0.00,VWS V14.01,2013-01-07 18:47:00,
2013-01-07 13:52:00,41.2,23.5,29.82,WNW,292,8.7,8.7,49,0.00,,,0.00,VWS V14.01,2013-01-07 18:52:00,
2013-01-07 13:57:00,41.0,23.8,29.82,West,270,4.9,4.9,50,0.00,,,0.00,VWS V14.01,2013-01-07 18:57:00,
2013-01-07 14:02:00,41.0,23.8,29.82,West,270,7.8,7.8,50,0.00,,,0.00,VWS V14.01,2013-01-07 19:02:00,
2013-01-07 14:07:00,41.2,24.0,29.82,WSW,248,5.4,5.4,50,0.00,,,0.00,VWS V14.01,2013-01-07 19:07:00,
2013-01-07 14:12:00,41.0,23.3,29.82,West,270,5.6,5.6,49,0.00,,,0.00,VWS V14.01,2013-01-07 19:12:00,
2013-01-07 14:17:00,41.0,23.3,29.82,West,270,7.8,7.8,49,0.00,,,0.00,VWS V14.01,2013-01-07 19:17:00,
2013-01-07 14:22:00,40.6,23.0,29.82,WSW,248,8.1,8.1,49,0.00,,,0.00,VWS V14.01,2013-01-07 19:22:00,
2013-01-07 14:27:00,40.8,23.6,29.82,WNW,292,5.8,5.8,50,0.00,,,0.00,VWS V14.01,2013-01-07 19:27:00,
2013-01-07 14:32:00,40.6,23.0,29.82,WNW,292,6.5,6.5,49,0.00,,,0.00,VWS V14.01,2013-01-07 19:32:00,
2013-01-07 14:38:00,40.6,23.0,29.82,WNW,292,7.8,7.8,49,0.00,,,0.00,VWS V14.01,2013-01-07 19:38:00,
2013-01-07 14:43:00,40.6,23.0,29.82,West,270,3.8,3.8,49,0.00,,,0.00,VWS V14.01,2013-01-07 19:43:00,
2013-01-07 14:48:00,40.5,22.8,29.82,WSW,248,6.0,6.0,49,0.00,,,0.00,VWS V14.01,2013-01-07 19:48:00,
2013-01-07 14:53:00,40.3,22.7,29.82,West,270,10.1,10.1,49,0.00,,,0.00,VWS V14.01,2013-01-07 19:53:00,
2013-01-07 14:58:00,40.5,22.8,29.82,WSW,248,6.0,6.0,49,0.00,,,0.00,VWS V14.01,2013-01-07 19:58:00,
2013-01-07 15:03:00,40.5,22.3,29.82,WNW,292,4.5,4.5,48,0.00,,,0.00,VWS V14.01,2013-01-07 20:03:00,
2013-01-07 15:08:00,40.5,22.8,29.82,WSW,248,4.3,4.3,49,0.00,,,0.00,VWS V14.01,2013-01-07 20:08:00,
2013-01-07 15:13:00,40.5,22.3,29.82,WNW,292,4.0,4.0,48,0.00,,,0.00,VWS V14.01,2013-01-07 20:13:00,
2013-01-07 15:18:00,40.5,22.3,29.82,WNW,292,3.4,3.4,48,0.00,,,0.00,VWS V14.01,2013-01-07 20:18:00,
2013-01-07 15:19:00,40.5,22.3,29.82,West,270,2.7,2.7,48,0.00,,,0.00,VWS V14.01,2013-01-07 20:19:00,
2013-01-07 15:24:00,40.5,22.8,29.82,West,270,2.7,2.7,49,0.00,,,0.00,VWS V14.01,2013-01-07 20:24:00,
2013-01-07 15:29:00,40.5,22.3,29.82,WNW,292,4.3,4.3,48,0.00,,,0.00,VWS V14.01,2013-01-07 20:29:00,
2013-01-07 15:34:00,40.6,22.5,29.82,WNW,292,4.0,4.0,48,0.00,,,0.00,VWS V14.01,2013-01-07 20:34:00,
2013-01-07 15:39:00,40.5,22.8,29.82,WNW,292,2.5,2.5,49,0.00,,,0.00,VWS V14.01,2013-01-07 20:39:00,
2013-01-07 15:44:00,40.5,22.8,29.82,WSW,248,3.6,3.6,49,0.00,,,0.00,VWS V14.01,2013-01-07 20:44:00,
2013-01-07 15:49:00,40.5,22.3,29.82,West,270,7.6,7.6,48,0.00,,,0.00,VWS V14.01,2013-01-07 20:49:00,
2013-01-07 15:54:00,40.3,22.2,29.82,West,270,6.0,6.0,48,0.00,,,0.00,VWS V14.01,2013-01-07 20:54:00,
2013-01-07 15:59:00,40.1,21.5,29.82,WSW,248,7.8,7.8,47,0.00,,,0.00,VWS V14.01,2013-01-07 20:59:00,
2013-01-07 16:04:00,39.9,21.3,29.82,West,270,5.4,5.4,47,0.00,,,0.00,VWS V14.01,2013-01-07 21:04:00,
2013-01-07 16:09:00,39.9,21.3,29.82,West,270,2.9,2.9,47,0.00,,,0.00,VWS V14.01,2013-01-07 21:09:00,
2013-01-07 16:14:00,39.7,21.7,29.82,WNW,292,6.5,6.5,48,0.00,,,0.00,VWS V14.01,2013-01-07 21:14:00,
2013-01-07 16:19:00,39.7,21.7,29.82,West,270,4.0,4.0,48,0.00,,,0.00,VWS V14.01,2013-01-07 21:19:00,
2013-01-07 16:24:00,39.6,21.5,29.82,WSW,248,6.5,6.5,48,0.00,,,0.00,VWS V14.01,2013-01-07 21:24:00,
2013-01-07 16:29:00,39.2,21.2,29.82,WSW,248,5.4,5.4,48,0.00,,,0.00,VWS V14.01,2013-01-07 21:29:00,
2013-01-07 16:34:00,38.8,21.3,29.82,West,270,4.5,4.5,49,0.00,,,0.00,VWS V14.01,2013-01-07 21:34:00,
2013-01-07 16:39:00,38.7,21.2,29.82,WNW,292,5.8,5.8,49,0.00,,,0.00,VWS V14.01,2013-01-07 21:39:00,
2013-01-07 16:44:00,38.5,21.0,29.82,WSW,248,4.7,4.7,49,0.00,,,0.00,VWS V14.01,2013-01-07 21:44:00,
2013-01-07 16:49:00,38.3,21.3,29.82,WSW,248,6.3,6.3,50,0.00,,,0.00,VWS V14.01,2013-01-07 21:49:00,
2013-01-07 16:55:00,37.9,21.0,29.82,WSW,248,6.3,6.3,50,0.00,,,0.00,VWS V14.01,2013-01-07 21:55:00,
2013-01-07 17:00:00,37.9,21.0,29.82,West,270,3.1,3.1,50,0.00,,,0.00,VWS V14.01,2013-01-07 22:00:00,
2013-01-07 17:05:00,37.6,20.6,29.82,WSW,248,3.8,3.8,50,0.00,,,0.00,VWS V14.01,2013-01-07 22:05:00,
2013-01-07 17:10:00,37.4,20.5,29.82,West,270,3.6,3.6,50,0.00,,,0.00,VWS V14.01,2013-01-07 22:10:00,
2013-01-07 17:15:00,37.2,20.8,29.82,WSW,248,2.0,2.0,51,0.00,,,0.00,VWS V14.01,2013-01-07 22:15:00,
2013-01-07 17:20:00,36.9,20.4,29.82,WSW,248,1.6,1.6,51,0.00,,,0.00,VWS V14.01,2013-01-07 22:20:00,
2013-01-07 17:25:00,36.7,20.7,29.82,WSW,248,0.0,0.0,52,0.00,,,0.00,VWS V14.01,2013-01-07 22:25:00,
2013-01-07 17:30:00,36.3,20.4,29.82,WSW,248,0.0,0.0,52,0.00,,,0.00,VWS V14.01,2013-01-07 22:30:00,
2013-01-07 17:35:00,36.1,20.7,29.82,WSW,248,1.3,1.3,53,0.00,,,0.00,VWS V14.01,2013-01-07 22:35:00,
2013-01-07 17:40:00,36.0,20.5,29.82,WSW,248,1.6,1.6,53,0.00,,,0.00,VWS V14.01,2013-01-07 22:40:00,
2013-01-07 17:45:00,35.8,20.3,29.82,WSW,248,4.5,4.5,53,0.00,,,0.00,VWS V14.01,2013-01-07 22:45:00,
2013-01-07 17:50:00,35.8,20.3,29.82,WSW,248,3.6,3.6,53,0.00,,,0.00,VWS V14.01,2013-01-07 22:50:00,
2013-01-07 17:55:00,35.8,20.3,29.82,WSW,248,7.2,7.2,53,0.00,,,0.00,VWS V14.01,2013-01-07 22:55:00,
2013-01-07 18:00:00,35.8,20.3,29.82,WSW,248,2.0,2.0,53,0.00,,,0.00,VWS V14.01,2013-01-07 23:00:00,
2013-01-07 18:05:00,35.6,20.6,29.82,WNW,292,2.2,2.2,54,0.00,,,0.00,VWS V14.01,2013-01-07 23:05:00,
2013-01-07 18:10:00,35.4,20.4,29.85,WSW,248,3.1,3.1,54,0.00,,,0.00,VWS V14.01,2013-01-07 23:10:00,
2013-01-07 18:15:00,35.4,20.4,29.85,WSW,248,3.6,3.6,54,0.00,,,0.00,VWS V14.01,2013-01-07 23:15:00,
2013-01-07 18:20:00,35.2,20.7,29.85,WNW,292,5.6,5.6,55,0.00,,,0.00,VWS V14.01,2013-01-07 23:20:00,
2013-01-07 18:25:00,35.4,20.9,29.85,West,270,4.9,4.9,55,0.00,,,0.00,VWS V14.01,2013-01-07 23:25:00,
2013-01-07 18:30:00,35.2,20.7,29.85,WSW,248,4.9,4.9,55,0.00,,,0.00,VWS V14.01,2013-01-07 23:30:00,
2013-01-07 18:35:00,35.1,21.0,29.85,WSW,248,3.6,3.6,56,0.00,,,0.00,VWS V14.01,2013-01-07 23:35:00,
2013-01-07 18:41:00,34.9,20.8,29.85,West,270,5.6,5.6,56,0.00,,,0.00,VWS V14.01,2013-01-07 23:41:00,
2013-01-07 18:46:00,34.9,20.8,29.85,WSW,248,3.4,3.4,56,0.00,,,0.00,VWS V14.01,2013-01-07 23:46:00,
2013-01-07 18:51:00,34.7,20.6,29.85,WSW,248,2.0,2.0,56,0.00,,,0.00,VWS V14.01,2013-01-07 23:51:00,
2013-01-07 18:56:00,34.5,20.9,29.85,West,270,3.1,3.1,57,0.00,,,0.00,VWS V14.01,2013-01-07 23:56:00,
2013-01-07 19:01:00,34.3,20.3,29.85,WSW,248,2.7,2.7,56,0.00,,,0.00,VWS V14.01,2013-01-08 00:01:00,
2013-01-07 19:06:00,34.3,20.3,29.85,WSW,248,4.7,4.7,56,0.00,,,0.00,VWS V14.01,2013-01-08 00:06:00,
2013-01-07 19:11:00,34.3,20.7,29.85,WSW,248,2.7,2.7,57,0.00,,,0.00,VWS V14.01,2013-01-08 00:11:00,
2013-01-07 19:16:00,34.0,20.4,29.85,SSW,202,2.9,2.9,57,0.00,,,0.00,VWS V14.01,2013-01-08 00:16:00,
2013-01-07 19:21:00,33.8,20.6,29.85,SSW,202,1.3,1.3,58,0.00,,,0.00,VWS V14.01,2013-01-08 00:21:00,
2013-01-07 19:26:00,33.6,20.4,29.85,WSW,248,0.0,0.0,58,0.00,,,0.00,VWS V14.01,2013-01-08 00:26:00,
2013-01-07 19:31:00,33.6,20.8,29.85,WSW,248,0.0,0.0,59,0.00,,,0.00,VWS V14.01,2013-01-08 00:31:00,
2013-01-07 19:36:00,33.3,20.5,29.85,SSW,202,2.5,2.5,59,0.00,,,0.00,VWS V14.01,2013-01-08 00:36:00,
2013-01-07 19:41:00,33.3,20.5,29.85,WSW,248,1.6,1.6,59,0.00,,,0.00,VWS V14.01,2013-01-08 00:41:00,
2013-01-07 19:46:00,33.3,20.9,29.85,SSW,202,1.3,1.3,60,0.00,,,0.00,VWS V14.01,2013-01-08 00:46:00,
2013-01-07 19:51:00,33.1,20.7,29.85,SSW,202,2.5,2.5,60,0.00,,,0.00,VWS V14.01,2013-01-08 00:51:00,
2013-01-07 19:56:00,33.1,20.7,29.82,SSW,202,0.0,0.0,60,0.00,,,0.00,VWS V14.01,2013-01-08 00:56:00,
2013-01-07 20:01:00,33.1,20.7,29.82,WSW,248,0.0,0.0,60,0.00,,,0.00,VWS V14.01,2013-01-08 01:01:00,
2013-01-07 20:06:00,32.9,20.2,29.82,SSW,202,1.6,1.6,59,0.00,,,0.00,VWS V14.01,2013-01-08 01:06:00,
2013-01-07 20:11:00,32.7,20.4,29.82,SSW,202,2.2,2.2,60,0.00,,,0.00,VWS V14.01,2013-01-08 01:11:00,
2013-01-07 20:16:00,32.7,20.4,29.82,SSW,202,0.0,0.0,60,0.00,,,0.00,VWS V14.01,2013-01-08 01:16:00,
2013-01-07 20:22:00,32.5,20.6,29.82,WSW,248,0.0,0.0,61,0.00,,,0.00,VWS V14.01,2013-01-08 01:22:00,
2013-01-07 20:27:00,32.5,20.2,29.82,SW,225,1.1,1.1,60,0.00,,,0.00,VWS V14.01,2013-01-08 01:27:00,
2013-01-07 20:32:00,32.4,20.0,29.82,SSW,202,1.6,1.6,60,0.00,,,0.00,VWS V14.01,2013-01-08 01:32:00,
2013-01-07 20:37:00,32.2,20.3,29.82,SSW,202,2.2,2.2,61,0.00,,,0.00,VWS V14.01,2013-01-08 01:37:00,
2013-01-07 20:42:00,32.2,20.3,29.82,SSW,202,1.6,1.6,61,0.00,,,0.00,VWS V14.01,2013-01-08 01:42:00,
2013-01-07 20:47:00,32.0,20.1,29.82,SSW,202,0.0,0.0,61,0.00,,,0.00,VWS V14.01,2013-01-08 01:47:00,
2013-01-07 20:52:00,31.8,19.9,29.82,SSW,202,0.0,0.0,61,0.00,,,0.00,VWS V14.01,2013-01-08 01:52:00,
2013-01-07 20:57:00,31.6,19.8,29.82,SSW,202,0.0,0.0,61,0.00,,,0.00,VWS V14.01,2013-01-08 01:57:00,
2013-01-07 21:02:00,31.6,20.1,29.82,WSW,248,0.0,0.0,62,0.00,,,0.00,VWS V14.01,2013-01-08 02:02:00,
2013-01-07 21:07:00,31.6,20.1,29.82,SW,225,0.0,0.0,62,0.00,,,0.00,VWS V14.01,2013-01-08 02:07:00,
2013-01-07 21:12:00,31.5,20.3,29.82,SW,225,0.0,0.0,63,0.00,,,0.00,VWS V14.01,2013-01-08 02:12:00,
2013-01-07 21:17:00,31.3,20.2,29.82,SSW,202,2.0,2.0,63,0.00,,,0.00,VWS V14.01,2013-01-08 02:17:00,
2013-01-07 21:22:00,31.1,19.6,29.82,SSW,202,0.9,0.9,62,0.00,,,0.00,VWS V14.01,2013-01-08 02:22:00,
2013-01-07 21:27:00,31.1,20.0,29.82,WNW,292,0.0,0.0,63,0.00,,,0.00,VWS V14.01,2013-01-08 02:27:00,
2013-01-07 21:32:00,30.9,19.8,29.82,West,270,0.0,0.0,63,0.00,,,0.00,VWS V14.01,2013-01-08 02:32:00,
2013-01-07 21:37:00,30.9,19.8,29.82,WNW,292,0.0,0.0,63,0.00,,,0.00,VWS V14.01,2013-01-08 02:37:00,
2013-01-07 21:42:00,30.7,19.6,29.82,SSW,202,3.1,3.1,63,0.00,,,0.00,VWS V14.01,2013-01-08 02:42:00,
2013-01-07 21:47:00,30.6,19.5,29.82,SSW,202,3.1,3.1,63,0.00,,,0.00,VWS V14.01,2013-01-08 02:47:00,
2013-01-07 21:52:00,30.4,19.3,29.82,SSW,202,2.5,2.5,63,0.00,,,0.00,VWS V14.01,2013-01-08 02:52:00,
2013-01-07 21:57:00,30.2,19.5,29.82,SSW,202,2.5,2.5,64,0.00,,,0.00,VWS V14.01,2013-01-08 02:57:00,
2013-01-07 22:02:00,30.2,19.5,29.82,SSW,202,2.7,2.7,64,0.00,,,0.00,VWS V14.01,2013-01-08 03:02:00,
2013-01-07 22:07:00,30.2,19.5,29.82,WSW,248,0.0,0.0,64,0.00,,,0.00,VWS V14.01,2013-01-08 03:07:00,
2013-01-07 22:12:00,30.0,19.3,29.82,WSW,248,0.9,0.9,64,0.00,,,0.00,VWS V14.01,2013-01-08 03:12:00,
2013-01-07 22:18:00,29.8,19.5,29.82,WSW,248,0.9,0.9,65,0.00,,,0.00,VWS V14.01,2013-01-08 03:18:00,
2013-01-07 22:23:00,29.7,19.4,29.82,WSW,248,0.0,0.0,65,0.00,,,0.00,VWS V14.01,2013-01-08 03:23:00,
2013-01-07 22:28:00,29.5,19.5,29.82,WSW,248,1.3,1.3,66,0.00,,,0.00,VWS V14.01,2013-01-08 03:28:00,
2013-01-07 22:33:00,29.5,19.5,29.82,West,270,0.0,0.0,66,0.00,,,0.00,VWS V14.01,2013-01-08 03:33:00,
2013-01-07 22:38:00,29.8,19.9,29.82,WSW,248,1.6,1.6,66,0.00,,,0.00,VWS V14.01,2013-01-08 03:38:00,
2013-01-07 22:43:00,29.8,19.9,29.82,WSW,248,2.0,2.0,66,0.00,,,0.00,VWS V14.01,2013-01-08 03:43:00,
2013-01-07 22:48:00,29.8,19.9,29.82,SSW,202,0.0,0.0,66,0.00,,,0.00,VWS V14.01,2013-01-08 03:48:00,
2013-01-07 22:53:00,29.8,20.2,29.82,SSW,202,2.2,2.2,67,0.00,,,0.00,VWS V14.01,2013-01-08 03:53:00,
2013-01-07 22:58:00,29.8,19.9,29.82,South,180,2.5,2.5,66,0.00,,,0.00,VWS V14.01,2013-01-08 03:58:00,
2013-01-07 23:03:00,29.8,19.9,29.82,South,180,2.5,2.5,66,0.00,,,0.00,VWS V14.01,2013-01-08 04:03:00,
2013-01-07 23:08:00,29.8,19.9,29.82,SSW,202,2.9,2.9,66,0.00,,,0.00,VWS V14.01,2013-01-08 04:08:00,
2013-01-07 23:13:00,29.8,19.9,29.82,South,180,2.7,2.7,66,0.00,,,0.00,VWS V14.01,2013-01-08 04:13:00,
2013-01-07 23:19:00,29.8,19.9,29.82,South,180,2.7,2.7,66,0.00,,,0.00,VWS V14.01,2013-01-08 04:19:00,
2013-01-07 23:24:00,29.7,19.7,29.82,SSW,202,1.6,1.6,66,0.00,,,0.00,VWS V14.01,2013-01-08 04:24:00,
2013-01-07 23:29:00,29.5,19.5,29.82,South,180,2.5,2.5,66,0.00,,,0.00,VWS V14.01,2013-01-08 04:29:00,
2013-01-07 23:34:00,29.5,19.5,29.82,SSE,158,1.6,1.6,66,0.00,,,0.00,VWS V14.01,2013-01-08 04:34:00,
2013-01-07 23:39:00,29.3,19.4,29.82,SSE,158,2.2,2.2,66,0.00,,,0.00,VWS V14.01,2013-01-08 04:39:00,
2013-01-07 23:44:00,29.1,19.2,29.82,South,180,2.5,2.5,66,0.00,,,0.00,VWS V14.01,2013-01-08 04:44:00,
2013-01-07 23:49:00,29.3,19.7,29.82,South,180,2.5,2.5,67,0.00,,,0.00,VWS V14.01,2013-01-08 04:49:00,
2013-01-07 23:55:00,29.3,19.7,29.79,South,180,2.2,2.2,67,0.00,,,0.00,VWS V14.01,2013-01-08 04:55:00,